This is the latest recevied weather packets stored in our database for station/object N9BLE. If no packets are shown the sender has not sent any weather packets the latest 10 day(s).
| Time | Temp. | Humidity | Pressure | Rain* | Wind** | Luminosity | Snow |
|---|---|---|---|---|---|---|---|
| 1777814174 | 8.33° C | 73% | 1017.9 hPa | 0 mm | - | 133 W/m² | - |
| 1777813871 | 8.33° C | 73% | 1018 hPa | 0 mm | - | 113 W/m² | - |
| 1777813569 | 7.78° C | 73% | 1018 hPa | 0 mm | - | 99 W/m² | - |
| 1777813266 | 7.78° C | 75% | 1018.1 hPa | 0 mm | - | 94 W/m² | - |
| 1777812963 | 7.78° C | 76% | 1018 hPa | 0 mm | - | 89 W/m² | - |
| 1777812661 | 7.22° C | 76% | 1018 hPa | 0 mm | - | 83 W/m² | - |
| 1777812357 | 7.22° C | 76% | 1017.9 hPa | 0 mm | - | 70 W/m² | - |
| 1777812055 | 7.22° C | 76% | 1017.9 hPa | 0 mm | - | 64 W/m² | - |
| 1777811754 | 7.22° C | 76% | 1017.7 hPa | 0 mm | - | 63 W/m² | - |
| 1777811449 | 6.67° C | 76% | 1017.9 hPa | 0 mm | - | 60 W/m² | - |
| 1777811146 | 6.67° C | 76% | 1017.8 hPa | 0 mm | - | 54 W/m² | - |
| 1777810843 | 6.67° C | 77% | 1017.8 hPa | 0 mm | - | 46 W/m² | - |
| 1777810540 | 6.67° C | 77% | 1017.8 hPa | 0 mm | - | 43 W/m² | - |
| 1777810237 | 6.67° C | 77% | 1017.8 hPa | 0 mm | - | 40 W/m² | - |
| 1777809933 | 6.67° C | 77% | 1017.9 hPa | 0 mm | - | 36 W/m² | - |
| 1777809632 | 6.67° C | 77% | 1017.8 hPa | 0 mm | - | 36 W/m² | - |
| 1777809328 | 6.67° C | 78% | 1017.8 hPa | 0 mm | - | 32 W/m² | - |
| 1777809026 | 6.11° C | 78% | 1017.7 hPa | 0 mm | - | 24 W/m² | - |
| 1777808723 | 6.11° C | 78% | 1017.5 hPa | 0 mm | - | 21 W/m² | - |
| 1777808420 | 6.11° C | 78% | 1017.7 hPa | 0 mm | - | 21 W/m² | - |
| 1777808118 | 6.11° C | 78% | 1017.4 hPa | 0 mm | - | 20 W/m² | - |
| 1777807816 | 6.11° C | 79% | 1017.3 hPa | 0 mm | - | 21 W/m² | - |
| 1777807514 | 6.11° C | 79% | 1017.3 hPa | 0 mm | - | 22 W/m² | - |
| 1777807209 | 5.56° C | 79% | 1017.3 hPa | 0 mm | - | 18 W/m² | - |
| 1777806906 | 5.56° C | 79% | 1017.3 hPa | 0 mm | - | 17 W/m² | - |
* Rain latest hour (hover to see other rain measurements)
** Current wind speed in m/s (hover to see current wind gust speed)